Location: Bessat
(45.8735°N, 1.9924°E)
Time: 23:04:51
(UTC+00:00)

SJ 16-02 - Pass Details

Date: 11 May 2021
Orbit: 606 x 616 km, 75.0° (Epoch: 24 June)

Event Time Altitude Azimuth Distance (km) Brightness Sun altitude
Exits shadow 22:56:49 - 254° (WSW) 2,618 4.5 -24.9°
Reaches altitude 10° 22:59:14 10° 275° (W) 1,981 4.1 -25.0°
Maximum altitude 23:01:37 14° 307° (NW) 1,723 4.2 -25.1°
Drops below altitude 10° 23:04:01 10° 340° (NNW) 1,988 5.0 -25.2°
Sets 23:07:17 0° 6° (N) 2,898 6.0 -25.3°
